Hourly Data Report for February 14, 2021

TORONTO CITY
ONTARIO
Current Station Operator: ECCC - MSC

43°40'00.000" N
79°24'00.000" W
112.50 m
6158355
71508
XTO

Download Data

Hourly Data (February 2021)
Hourly Data Report for February 14, 2021
TIME
LST
Temp Definition
°C
Dew Point Definition
°C
Rel Hum Definition
%
Precip. Amount Definition
mm

Wind Dir Definition
10's deg

Wind Spd Definition
km/h
Visibility Definition
km
Stn Press Definition
kPa
Hmdx Definition


Wind Chill Definition


Weather Definition


00:00 -9.6 -12.3 81 0.2       100.68     LegendNANA
01:00 -9.2 -11.7 82 0.3       100.74     LegendNANA
02:00 -9.3 -12.1 80 0.0       100.78     LegendNANA
03:00 -9.3 -12.5 78 0.0       100.82     LegendNANA
04:00 -9.2 -12.6 76 0.0       100.83     LegendNANA
05:00 -9.9 -13.2 77 0.0       100.95     LegendNANA
06:00 -10.4 -13.8 76 0.0       101.07     LegendNANA
07:00 -11.0 -14.3 77 0.0       101.09     LegendNANA
08:00 -10.9 -14.4 76 0.0       101.18     LegendNANA
09:00 -9.8 -14.2 70 0.0       101.27     LegendNANA
10:00 -8.4 -14.4 62 0.0       101.26     LegendNANA
11:00 -6.7 -13.7 58 0.0       101.31     LegendNANA
12:00 -5.3 -13.3 53 0.0       101.36     LegendNANA
13:00 -4.4 -14.6 45 0.0       101.28     LegendNANA
14:00 -3.3 -11.9 51 0.0       101.30     LegendNANA
15:00 -4.3 -10.7 61 0.0       101.17     LegendNANA
16:00 -4.2 -10.3 62 0.0       101.18     LegendNANA
17:00 -4.4 -10.3 63 0.0       101.22     LegendNANA
18:00 -4.2 -10.3 63 0.0       101.29     LegendNANA
19:00 -3.9 -10.5 60 0.0       101.36     LegendNANA
20:00 -4.4 -10.6 62 0.0       101.31     LegendNANA
21:00 -4.9 -10.7 64 0.0       101.30     LegendNANA
22:00 -5.1 -11.5 61 0.0       101.28     LegendNANA
23:00 -5.7 -11.1 66 0.0       101.24     LegendNANA

Notes on Data Quality.

Legend

  • E = Estimated
  • M = Missing
  • NA = Not Available*
  • [empty] = Indicates an unobserved value
Date modified: